Powrót do katalogu

CONNECTA IOT-14

AktywnyŁącznośćSSO
NORAD 67401·PAYLOAD·🇹🇷 Turkey

Wystrzelony Jan 11, 2026 z Vandenberg Space Force Base

Loading…

Następne Przeloty (najbliższe 24 godziny)

TLE

ŚwieżeSource: Space-Track

Epoka: Sep 14, 2026, 05:08 UTC

1 67401U 26004AQ  26257.21450869  .00006556  00000-0  31404-3 0  9994
2 67401  97.4567 255.0254 0010541  40.2062 319.9950 15.19224615 37277

Śledź CONNECTA IOT-14 w czasie rzeczywistym z AllMySat

Download on the App Store